TimeCST,TemperatureF,Dew PointF,Humidity,Sea Level PressureIn,VisibilityMPH,Wind Direction,Wind SpeedMPH,Gust SpeedMPH,PrecipitationIn,Events,Conditions,WindDirDegrees,DateUTC
12:53 AM,64.9,64.0,97,30.30,6.0,East,8.1,-,N/A,,Overcast,80,2013-01-10 06:53:00
1:53 AM,66.0,64.0,93,30.30,6.0,East,3.5,-,N/A,,Overcast,80,2013-01-10 07:53:00
2:53 AM,66.0,64.0,93,30.30,5.0,Calm,Calm,-,N/A,,Overcast,0,2013-01-10 08:53:00
3:26 AM,64.4,64.4,100,30.29,4.0,ENE,4.6,-,N/A,,Overcast,70,2013-01-10 09:26:00
3:53 AM,64.9,64.9,100,30.28,4.0,ENE,6.9,-,N/A,,Overcast,60,2013-01-10 09:53:00
4:53 AM,66.9,64.9,93,30.26,6.0,East,5.8,-,N/A,,Overcast,90,2013-01-10 10:53:00
5:53 AM,68.0,66.0,93,30.27,7.0,East,3.5,-,N/A,,Overcast,80,2013-01-10 11:53:00
6:44 AM,68.0,66.2,94,30.28,7.0,ESE,4.6,-,N/A,,Overcast,110,2013-01-10 12:44:00
6:53 AM,68.0,66.0,93,30.28,6.0,ESE,5.8,-,N/A,,Overcast,110,2013-01-10 12:53:00
7:53 AM,68.0,66.9,96,30.28,4.0,East,4.6,-,N/A,,Overcast,100,2013-01-10 13:53:00
8:49 AM,69.8,66.2,88,30.30,6.0,ESE,3.5,-,N/A,,Overcast,120,2013-01-10 14:49:00
8:53 AM,69.1,66.9,93,30.30,7.0,ESE,4.6,-,N/A,,Overcast,120,2013-01-10 14:53:00
9:02 AM,69.8,66.2,88,30.30,8.0,ESE,4.6,-,N/A,,Overcast,110,2013-01-10 15:02:00
9:53 AM,72.0,66.0,81,30.29,10.0,SE,8.1,-,N/A,,Overcast,140,2013-01-10 15:53:00
10:34 AM,73.4,64.4,73,30.30,10.0,SSE,8.1,-,N/A,,Overcast,160,2013-01-10 16:34:00
10:53 AM,75.0,64.9,71,30.29,10.0,Variable,6.9,-,N/A,,Overcast,0,2013-01-10 16:53:00
11:53 AM,77.0,64.0,64,30.26,10.0,SE,11.5,21.9,N/A,,Mostly Cloudy,140,2013-01-10 17:53:00
12:53 PM,77.0,64.0,64,30.24,10.0,SSE,8.1,-,N/A,,Mostly Cloudy,150,2013-01-10 18:53:00
1:53 PM,78.1,62.1,58,30.22,10.0,SSE,9.2,-,N/A,,Scattered Clouds,160,2013-01-10 19:53:00
2:53 PM,79.0,62.1,56,30.22,10.0,South,9.2,-,N/A,,Clear,180,2013-01-10 20:53:00
3:53 PM,75.9,61.0,60,30.23,10.0,SSE,8.1,-,N/A,,Clear,160,2013-01-10 21:53:00
4:53 PM,73.0,62.1,68,30.23,10.0,SSE,5.8,-,N/A,,Clear,150,2013-01-10 22:53:00
5:53 PM,70.0,60.1,71,30.24,10.0,South,5.8,-,N/A,,Clear,180,2013-01-10 23:53:00
6:53 PM,70.0,61.0,73,30.23,10.0,SSE,3.5,-,N/A,,Clear,150,2013-01-11 00:53:00
7:53 PM,66.9,60.1,79,30.22,10.0,ESE,4.6,-,N/A,,Clear,110,2013-01-11 01:53:00
8:53 PM,66.9,60.1,79,30.22,10.0,Calm,Calm,-,N/A,,Clear,0,2013-01-11 02:53:00
9:53 PM,64.9,60.1,84,30.23,10.0,Calm,Calm,-,N/A,,Mostly Cloudy,0,2013-01-11 03:53:00
10:53 PM,64.0,60.1,87,30.24,10.0,Calm,Calm,-,N/A,,Overcast,0,2013-01-11 04:53:00
11:53 PM,64.0,61.0,90,30.23,10.0,Calm,Calm,-,N/A,,Overcast,0,2013-01-11 05:53:00